星链-35510(STARLINK-35510)

导读

STARLINK-35510是美国于2025年11月8日发射的星链系列卫星,隶属于SpaceX公司的星链星座项目。星链项目旨在搭建全球卫星互联网,为全球偏远地区等提供高速互联网接入服务,该卫星入轨后将与其他星链卫星组网,进一步拓展星链星座的覆盖范围与服务能力。

基本信息
目录编号:
66397
目录名称:
STARLINK-35510
国际标识:
2025-257T
轨道中心:
EARTH
卫星名称:
星链-35510
卫星全名:
星链-35510(STARLINK-35510)
卫星状态:
在轨 (已飞行301 天)
发射日期:
2025-11-08 UTC
国别 :
美国 (US)
星等 :
--
轨道信息
数据来源 国际轨道数据 AOE轨道数据
星历时间 2026-09-05T05:30:38+0800
20小时前
查看轨道信息
2026-09-01T22:00:00+0800
4天前
查看轨道信息
半长轴 6840.859km 6840.749km
偏心率 0.0001217 0.0001521
轨道倾角 53.158° 53.158°
近地点辐角 91.746° 61.431°
升交点赤经 102.298° 117.787°
平近点角 268.368° 348.419°
近地点 461.889km 461.571km
远地点 463.555km 463.653km
周期 93.848分钟 93.846分钟
每日圈数 15.343939 15.344309
详细信息
固有亮度:
5
最大亮度:
2.5
卫星平台:
Starlink V1.0
覆盖范围:
全球
运营商:
太空探索技术公司
运营商所在国:
美国
制造商(研发单位):
太空探索技术公司
制造商所在国:
美国
使用方式:
暂无
卫星简介
Starlink 计划是 SpaceX 推出的全球卫星互联网项目,通过发射低轨道卫星,为全球尤其是偏远地区提供高速、低延迟的互联网服务。自 2019 年起,Starlink 已部署数千颗卫星,旨在缩小全球数字鸿沟,推动互联网普及。该项目还为军事、航空等行业提供通信支持,带来广泛经济效益。
2D轨道图
3D轨道图
轨道高度分析图
轨道倾角分析图
轨道综合分析图
查看轨道综合分析图